Arbor Vitae, WI

9:33 PM CDT on May 25, 2017 (GMT -0500)
Lakeland-Lee Memorial

Weather History for KARV - May, 2013

Change the Weather History Date:

Sunday, May 12, 2013

  Actual Average Record
Temperature  
Mean Temperature 38 °F -  
Max Temperature 44 °F 65 °F 84 °F (1940)
Min Temperature 32 °F 38 °F 20 °F (1927)
Degree Days  
Heating Degree Days 27    
Moisture  
Dew Point 21 °F    
Average Humidity 58    
Maximum Humidity 93    
Minimum Humidity 29    
Precipitation  
Precipitation 0.00 in - - ()
Sea Level Pressure  
Sea Level Pressure 30.06 in    
Wind  
Wind Speed 13 mph (NNW)    
Max Wind Speed 21 mph    
Max Gust Speed 30 mph    
Visibility 10 miles    
Events Snow    
Averages and records for this station are not official NWS values.
T = Trace of Precipitation, MM = Missing Value Source: NWS Daily Summary

Daily Weather History Graph

Daily Weather History Graph

Search for Another Location

Airport or City:

Trip Planner

Search our weather history database for the weather conditions in past years. The results will help you decide how hot, cold, wet, or windy it might be!

Date:

Astronomy

May. 12, 2013 Rise Set
Actual Time 5:30 AM CDT 8:20 PM CDT
Civil Twilight 4:55 AM CDT 8:55 PM CDT
Nautical Twilight 4:11 AM CDT 9:40 PM CDT
Astronomical Twilight 3:19 AM CDT 10:32 PM CDT
Moon 7:23 AM CDT (5/12) 10:49 PM CDT (5/12)
Length of Visible Light 16h 00m
Length of Day
14h 50m
Waxing Crescent, 7% of the Moon is Illuminated
May 12
Waxing Crescent
May 17
First Quarter
May 24
Full
May 31
Last Quarter
Jun 8
New

Hourly Weather History & Observations

Time (CDT) Temp. Windchill Dew Point Humidity Pressure Visibility Wind Dir Wind Speed Gust Speed Precip Events Conditions
12:15 AM 33.8 °F 23.2 °F 30.2 °F 87% 30.01 in 5.0 mi NNW 17.3 mph 24.2 mph N/A Snow Light Snow
12:35 AM 32.0 °F 21.6 °F 30.2 °F 93% 30.01 in 3.0 mi NNW 15.0 mph 20.7 mph N/A Snow Light Snow
12:55 AM 32.0 °F 20.1 °F 30.2 °F 93% 30.02 in 5.0 mi NNW 19.6 mph 26.5 mph N/A Snow Light Snow
1:15 AM 32.0 °F 22.1 °F 28.4 °F 87% 30.01 in 10.0 mi NNW 13.8 mph 24.2 mph N/A Snow Light Snow
1:35 AM 32.0 °F 22.5 °F 28.4 °F 87% 30.02 in 10.0 mi NNW 12.7 mph 23.0 mph N/A   Overcast
1:55 AM 32.0 °F 21.6 °F 28.4 °F 87% 30.02 in 10.0 mi NNW 15.0 mph 19.6 mph N/A   Overcast
2:15 AM 32.0 °F 22.5 °F 28.4 °F 87% 30.02 in 10.0 mi NNW 12.7 mph 21.9 mph N/A   Overcast
2:35 AM 32.0 °F 20.1 °F 28.4 °F 87% 30.02 in 10.0 mi NNW 19.6 mph 26.5 mph N/A   Overcast
2:55 AM 32.0 °F 22.1 °F 28.4 °F 87% 30.03 in 10.0 mi NNW 13.8 mph 20.7 mph N/A   Overcast
3:15 AM 32.0 °F 22.1 °F 28.4 °F 87% 30.03 in 10.0 mi NNW 13.8 mph 20.7 mph N/A   Mostly Cloudy
3:35 AM 32.0 °F 23.6 °F 28.4 °F 87% 30.03 in 10.0 mi NNW 10.4 mph 17.3 mph N/A   Overcast
3:55 AM 32.0 °F 23.6 °F 28.4 °F 87% 30.03 in 10.0 mi North 10.4 mph 19.6 mph N/A   Overcast
4:35 AM 32.0 °F 22.1 °F 26.6 °F 80% 30.03 in 10.0 mi North 13.8 mph 24.2 mph N/A   Overcast
4:55 AM 32.0 °F 22.1 °F 26.6 °F 80% 30.04 in 10.0 mi North 13.8 mph 25.3 mph N/A   Overcast
5:15 AM 32.0 °F 21.6 °F 24.8 °F 75% 30.04 in 10.0 mi North 15.0 mph 23.0 mph N/A   Overcast
5:35 AM 32.0 °F 22.1 °F 23.0 °F 69% 30.05 in 10.0 mi North 13.8 mph 18.4 mph N/A   Scattered Clouds
5:55 AM 32.0 °F 24.2 °F 24.8 °F 75% 30.05 in 10.0 mi NNW 9.2 mph 16.1 mph N/A   Clear
6:15 AM 32.0 °F 22.5 °F 23.0 °F 69% 30.05 in 10.0 mi NNW 12.7 mph 17.3 mph N/A   Clear
6:35 AM 32.0 °F 21.6 °F 23.0 °F 69% 30.05 in 10.0 mi NNW 15.0 mph 20.7 mph N/A   Mostly Cloudy
6:55 AM 32.0 °F 22.5 °F 23.0 °F 69% 30.05 in 10.0 mi North 12.7 mph 18.4 mph N/A   Overcast
7:15 AM 32.0 °F 23.0 °F 23.0 °F 69% 30.05 in 10.0 mi North 11.5 mph 19.6 mph N/A   Overcast
7:35 AM 32.0 °F 23.6 °F 23.0 °F 69% 30.06 in 10.0 mi NNW 10.4 mph 17.3 mph N/A   Overcast
7:55 AM 32.0 °F 23.6 °F 23.0 °F 69% 30.06 in 10.0 mi NNW 10.4 mph 19.6 mph N/A   Overcast
8:15 AM 32.0 °F 24.8 °F 23.0 °F 69% 30.06 in 10.0 mi NNW 8.1 mph 16.1 mph N/A   Overcast
8:35 AM 32.0 °F 23.6 °F 24.8 °F 75% 30.06 in 10.0 mi North 10.4 mph - N/A   Overcast
8:55 AM 33.8 °F 23.9 °F 26.6 °F 75% 30.07 in 10.0 mi NW 15.0 mph 21.9 mph N/A   Overcast
9:15 AM 33.8 °F 23.5 °F 23.0 °F 65% 30.07 in 10.0 mi North 16.1 mph 23.0 mph N/A   Overcast
9:35 AM 33.8 °F 22.2 °F 23.0 °F 65% 30.08 in 10.0 mi North 20.7 mph 27.6 mph N/A   Overcast
9:55 AM 33.8 °F 23.2 °F 23.0 °F 65% 30.08 in 10.0 mi North 17.3 mph 27.6 mph N/A   Overcast
10:15 AM 35.6 °F 26.2 °F 26.6 °F 70% 30.08 in 10.0 mi NNW 15.0 mph 19.6 mph N/A   Overcast
10:35 AM 35.6 °F 26.6 °F 26.6 °F 70% 30.08 in 10.0 mi NNW 13.8 mph 24.2 mph N/A   Overcast
10:55 AM 35.6 °F 25.5 °F 26.6 °F 70% 30.08 in 10.0 mi North 17.3 mph 25.3 mph N/A   Overcast
11:15 AM 35.6 °F 25.5 °F 24.8 °F 65% 30.08 in 10.0 mi North 17.3 mph 25.3 mph N/A   Mostly Cloudy
11:35 AM 37.4 °F 29.3 °F 24.8 °F 60% 30.08 in 10.0 mi North 12.7 mph 21.9 mph N/A   Overcast
11:55 AM 37.4 °F 28.9 °F 23.0 °F 56% 30.08 in 10.0 mi NNW 13.8 mph 21.9 mph N/A   Scattered Clouds
12:15 PM 39.2 °F 31.6 °F 23.0 °F 52% 30.07 in 10.0 mi NNW 12.7 mph 16.1 mph N/A   Scattered Clouds
12:35 PM 39.2 °F 33.6 °F 21.2 °F 49% 30.07 in 10.0 mi NNW 8.1 mph 25.3 mph N/A   Scattered Clouds
1:15 PM 41.0 °F 33.1 °F 19.4 °F 42% 30.06 in 10.0 mi NNW 15.0 mph 21.9 mph N/A   Scattered Clouds
1:35 PM 42.8 °F 35.1 °F 19.4 °F 39% 30.06 in 10.0 mi NW 16.1 mph 20.7 mph N/A   Scattered Clouds
1:55 PM 42.8 °F 37.0 °F 17.6 °F 36% 30.06 in 10.0 mi NW 10.4 mph 24.2 mph N/A   Scattered Clouds
2:15 PM 42.8 °F 35.1 °F 17.6 °F 36% 30.06 in 10.0 mi NNW 16.1 mph 19.6 mph N/A   Clear
2:35 PM 42.8 °F 34.8 °F 14.0 °F 31% 30.06 in 10.0 mi NW 17.3 mph 25.3 mph N/A   Clear
2:55 PM 42.8 °F 35.4 °F 14.0 °F 31% 30.06 in 10.0 mi NNW 15.0 mph - N/A   Clear
3:15 PM 42.8 °F 35.1 °F 15.8 °F 34% 30.06 in 10.0 mi NW 16.1 mph 24.2 mph N/A   Scattered Clouds
3:35 PM 42.8 °F 35.1 °F 14.0 °F 31% 30.06 in 10.0 mi NNW 16.1 mph 23.0 mph N/A   Clear
3:55 PM 42.8 °F 36.2 °F 14.0 °F 31% 30.06 in 10.0 mi NNW 12.7 mph 19.6 mph N/A   Clear
4:15 PM 42.8 °F 34.8 °F 14.0 °F 31% 30.06 in 10.0 mi NW 17.3 mph 21.9 mph N/A   Clear
4:35 PM 44.6 °F 37.8 °F 14.0 °F 29% 30.06 in 10.0 mi North 15.0 mph 24.2 mph N/A   Clear
4:55 PM 44.6 °F 38.4 °F 14.0 °F 29% 30.06 in 10.0 mi North 12.7 mph 25.3 mph N/A   Clear
5:15 PM 44.6 °F 36.9 °F 14.0 °F 29% 30.06 in 10.0 mi North 18.4 mph 24.2 mph N/A   Clear
5:35 PM 44.6 °F 38.1 °F 14.0 °F 29% 30.06 in 10.0 mi NNW 13.8 mph 29.9 mph N/A   Scattered Clouds
5:55 PM 44.6 °F 36.9 °F 14.0 °F 29% 30.06 in 10.0 mi North 18.4 mph 25.3 mph N/A   Clear
6:15 PM 44.6 °F 37.2 °F 14.0 °F 29% 30.06 in 10.0 mi North 17.3 mph 25.3 mph N/A   Clear
6:35 PM 42.8 °F 36.6 °F 14.0 °F 31% 30.06 in 10.0 mi North 11.5 mph 19.6 mph N/A   Clear
6:55 PM 42.8 °F 35.4 °F 14.0 °F 31% 30.06 in 10.0 mi North 15.0 mph 24.2 mph N/A   Clear
7:15 PM 42.8 °F 36.6 °F 14.0 °F 31% 30.06 in 10.0 mi North 11.5 mph 18.4 mph N/A   Clear
7:35 PM 41.0 °F 34.7 °F 14.0 °F 33% 30.07 in 10.0 mi North 10.4 mph - N/A   Clear
7:55 PM 41.0 °F 35.8 °F 15.8 °F 36% 30.07 in 10.0 mi NNE 8.1 mph - N/A   Clear
8:15 PM 37.4 °F 31.4 °F 15.8 °F 41% 30.07 in 10.0 mi North 8.1 mph - N/A   Clear
8:35 PM 37.4 °F 32.8 °F 15.8 °F 41% 30.08 in 10.0 mi North 5.8 mph - N/A   Clear
8:55 PM 35.6 °F 31.7 °F 17.6 °F 48% 30.08 in 10.0 mi North 4.6 mph - N/A   Clear
9:15 PM 37.4 °F 34.9 °F 17.6 °F 45% 30.09 in 10.0 mi NNE 3.5 mph - N/A   Clear
9:35 PM 37.4 °F 34.9 °F 17.6 °F 45% 30.10 in 10.0 mi NNE 3.5 mph - N/A   Clear
9:55 PM 35.6 °F - 17.6 °F 48% 30.10 in 10.0 mi Calm Calm - N/A   Clear
10:15 PM 33.8 °F - 19.4 °F 56% 30.10 in 10.0 mi Calm Calm - N/A   Clear
10:35 PM 32.0 °F - 17.6 °F 55% 30.10 in 10.0 mi Calm Calm - N/A   Clear
10:55 PM 32.0 °F - 19.4 °F 60% 30.10 in 10.0 mi Calm Calm - N/A   Clear
11:15 PM 32.0 °F - 21.2 °F 64% 30.10 in 10.0 mi Calm Calm - N/A   Clear
11:35 PM 32.0 °F - 21.2 °F 64% 30.10 in 10.0 mi Calm Calm - N/A   Clear
11:55 PM 32.0 °F - 23.0 °F 69% 30.10 in 10.0 mi Calm Calm - N/A   Clear